Location: ???? ???? ?????
(31.2680°N, 31.7283°E)
Time: 09:35:40
(UTC+00:00)

H-2A ROCKET BODY - Pass Details

Date: 13 July 2020
Orbit: 242 x 15321 km, 28.6° (Epoch: 07 August)

Event Time Altitude Azimuth Distance (km) Brightness Sun altitude
Rises 18:27:27 0° 269° (W) 2,601 5.6 -16.7°
Reaches altitude 10° 18:28:50 10° 263° (W) 2,042 4.8 -16.9°
Maximum altitude 18:33:04 52° 186° (S) 1,484 3.2 -17.6°
Enters shadow 18:41:23 23° 122° (ESE) 4,472 5.3 -19.0°
